Theta_e
307 308 308 308 307 306 303 297 288 304 305 293 290 286 291 294 294 298 295 295 291 288 289 287 290 293 298 300 299 293 294 291 286 289 294 297 292 288 290 284 285 289 286 286
307 308 308 308 308 306 301 294 293 304 303 286 287 292 292 294 294 294 294 293 293 294 287 288 292 297 303 301 298 295 292 286 283 285 290 294 289 291 290 293 294 290 286 289
307 307 308 308 308 307 300 297 290 292 295 296 290 288 290 290 297 298 300 297 296 291 289 291 294 298 302 303 300 310 301 291 288 283 288 292 289 291 293 292 287 291 292 294
307 308 308 308 308 306 298 294 289 294 287 290 291 292 290 288 290 296 300 297 294 294 291 292 293 297 299 302 306 300 296 291 294 296 297 297 294 293 295 294 295 291 296 296
307 308 308 308 308 306 296 293 292 295 293 293 291 291 289 289 291 293 295 294 295 295 291 292 291 294 294 293 295 296 298 291 294 292 297 296 295 298 300 300 299 298 299 299
307 308 308 308 308 304 294 299 300 296 292 290 290 289 291 291 295 298 298 297 295 293 295 298 296 298 296 297 295 295 295 293 288 288 294 295 289 294 297 298 301 300 295 301
307 308 308 308 308 307 301 299 298 294 288 291 290 294 294 294 295 293 297 300 296 299 304 302 300 299 300 301 299 299 295 293 288 287 291 282 293 301 303 300 301 302 303 305
307 307 307 308 308 308 302 297 298 295 289 292 293 294 294 296 297 296 297 301 302 303 299 296 295 294 295 298 299 298 298 293 287 286 286 292 296 299 299 296 295 301 303 304
307 307 307 308 308 308 302 297 300 296 292 291 296 294 295 293 293 295 298 303 308 302 297 293 286 286 292 291 295 300 299 297 291 287 284 283 293 302 304 300 290 302 303 301
306 306 306 308 308 308 304 296 298 298 293 296 297 294 293 298 296 293 296 298 301 303 292 289 288 289 296 287 289 292 291 291 288 287 286 290 301 305 305 288 288 301 303 302
304 306 306 308 308 308 305 298 302 300 296 297 300 300 297 299 298 293 296 296 297 296 290 290 291 290 294 292 295 292 291 289 285 290 286 282 303 302 296 297 301 304 304 304
304 305 306 307 308 308 307 293 299 301 298 297 301 302 303 305 303 297 297 296 296 299 293 294 295 293 294 292 287 299 291 295 293 292 293 299 302 301 302 302 300 300 300 300
304 305 306 306 307 308 306 299 299 299 294 295 297 298 304 307 305 304 294 296 299 299 304 298 296 291 295 288 290 295 299 301 295 294 298 298 299 300 301 301 300 301 301 300
304 305 306 306 307 307 307 297 300 297 295 292 294 304 301 306 305 305 303 302 301 302 302 297 295 292 296 292 294 294 297 299 296 295 297 298 299 301 300 301 301 300 300 299
304 305 306 306 307 307 305 300 302 299 295 289 291 298 301 303 304 303 302 301 297 294 294 293 292 295 294 293 293 292 297 295 292 291 296 296 297 300 302 299 299 299 298 297
305 306 306 306 307 307 298 294 300 300 298 295 287 297 299 302 302 301 300 300 296 294 291 290 294 297 294 289 288 296 298 300 299 296 301 300 300 301 300 297 298 298 297 295
305 306 306 307 306 299 294 292 297 303 298 294 288 289 298 300 299 298 297 297 295 294 292 291 292 294 294 291 288 295 297 299 300 302 301 297 298 296 299 299 296 296 294 293
306 306 307 307 307 303 298 301 304 301 295 295 285 289 292 298 293 292 296 293 293 293 290 292 291 293 292 289 295 296 297 297 297 298 298 296 296 296 295 296 295 292 291 290
305 306 308 302 299 294 296 307 307 298 296 289 292 286 285 296 292 293 293 292 287 291 288 290 292 289 289 294 293 295 297 295 293 295 295 294 293 292 292 292 291 290 289 288
306 302 296 291 295 308 306 300 295 295 294 292 288 293 291 295 291 288 290 290 286 284 288 292 289 289 295 296 296 293 294 294 293 291 289 290 290 289 289 289 289 289 288 287
295 290 291 296 304 297 294 289 288 289 287 290 290 292 289 294 289 288 290 284 287 281 285 287 286 287 294 293 292 293 294 293 292 291 290 289 289 288 288 287 288 287 286 285
296 297 299 296 295 291 288 285 289 288 285 291 288 290 292 293 294 289 289 287 289 283 289 285 285 291 291 293 292 293 293 292 290 290 288 288 288 288 287 286 285 285 285 286
302 298 295 291 289 280 286 282 287 286 289 290 290 287 291 292 292 289 288 285 282 290 285 286 288 292 291 291 292 292 292 291 290 289 288 288 287 287 286 285 286 286 284 284
294 289 279 288 289 287 285 286 288 292 293 294 293 288 289 290 288 289 285 287 288 281 283 285 289 290 290 293 293 292 290 290 289 288 288 286 285 284 284 284 285 285 283 282
291 289 283 287 291 291 290 291 290 296 293 294 291 289 290 287 290 290 286 284 282 284 284 290 293 290 292 291 292 291 290 288 288 287 286 286 285 284 283 284 284 284 283 281
295 293 286 293 292 293 291 292 290 293 291 295 292 290 287 285 289 288 284 281 281 286 292 294 290 290 291 291 292 291 290 288 287 286 286 286 284 282 282 283 282 282 282 281
291 287 291 290 290 292 293 294 292 295 292 290 289 286 287 288 284 283 288 285 289 293 295 294 290 291 291 291 292 291 290 288 287 286 285 284 284 284 283 281 283 283 283 283
Wind_Speed
25 27 28 29 29 28 7 4 5 2 0 2 0 3 5 7 10 6 11 5 8 6 3 2 2 4 5 15 20 15 3 4 0 8 7 16 10 9 7 7 3 2 4 9
25 26 27 28 30 26 6 6 4 3 5 6 6 6 8 7 9 9 4 5 6 4 4 4 7 8 14 9 15 11 6 1 2 4 4 4 8 6 8 6 4 7 7 3
25 25 26 27 29 32 3 3 5 5 3 3 8 8 7 13 13 6 10 6 5 3 3 8 4 4 2 9 14 7 11 3 6 6 6 4 6 6 8 8 5 7 5 7
24 25 25 26 27 31 4 5 3 1 8 10 14 9 5 10 10 8 12 2 10 4 2 1 2 4 7 7 16 5 7 2 3 8 8 6 7 5 6 6 10 8 11 12
24 24 24 24 23 25 5 3 4 3 9 12 15 8 6 8 10 4 7 13 10 9 4 4 4 6 3 5 4 6 4 2 5 8 11 9 7 14 9 13 11 9 18 12
23 23 22 22 21 14 3 3 4 4 6 9 10 11 12 8 14 6 7 8 2 6 4 6 3 3 6 4 4 5 5 5 4 3 9 3 8 9 8 7 7 23 14 15
21 22 22 22 20 14 3 4 3 3 6 8 12 17 15 16 17 7 10 12 4 8 8 1 5 6 2 2 10 4 6 6 4 2 5 6 6 6 2 14 9 8 16 16
21 21 22 21 21 19 4 3 2 3 6 9 10 20 18 15 20 13 8 15 2 8 4 2 5 6 9 9 13 10 5 7 7 4 3 2 2 4 3 16 5 4 16 11
21 21 21 21 21 20 7 3 2 2 3 2 8 9 14 6 11 11 6 18 1 9 2 4 4 3 5 3 5 8 15 11 10 2 4 3 6 2 9 7 6 7 18 16
23 22 22 22 21 20 8 4 1 2 2 5 6 5 7 6 9 5 8 16 5 11 6 4 5 4 3 4 3 5 4 5 9 3 2 4 9 7 3 7 7 2 20 16
23 22 22 21 21 20 10 7 4 2 3 8 4 4 5 7 7 7 12 7 9 4 4 3 3 4 4 3 4 6 3 4 3 5 4 3 6 7 4 5 5 12 14 16
22 23 22 22 21 19 13 3 4 2 3 7 5 9 9 6 5 4 5 3 3 3 4 4 3 4 3 1 4 1 4 5 5 3 5 3 12 17 5 7 11 6 12 12
22 22 22 22 21 18 11 4 4 4 2 6 4 5 6 5 7 4 3 5 4 3 4 2 2 6 3 3 4 1 7 11 8 9 5 16 14 14 13 15 14 14 14 15
22 21 21 22 20 18 13 2 2 1 2 3 7 6 8 9 9 8 4 8 3 2 4 3 4 4 5 3 3 6 1 4 12 15 13 17 14 13 14 15 16 17 16 15
22 22 22 21 20 19 9 3 3 1 3 2 6 11 6 8 9 11 10 12 6 4 5 4 3 3 4 4 4 11 5 3 4 3 6 13 5 10 13 15 12 11 16 14
24 23 22 21 18 16 3 4 3 2 2 2 4 5 7 11 10 10 10 8 5 4 3 2 3 4 4 5 4 9 14 12 7 7 13 14 11 13 14 15 14 13 14 13
25 23 21 19 14 2 2 4 5 3 2 0 5 5 5 6 5 5 5 6 3 3 2 5 3 5 6 4 4 4 8 11 11 10 11 9 7 7 9 16 17 19 15 13
26 24 20 17 12 4 3 4 8 2 1 0 1 5 5 4 4 5 3 5 5 6 1 4 4 4 4 5 3 6 8 9 11 9 9 7 10 15 15 13 13 14 11 9
27 24 15 3 3 2 4 7 6 2 3 1 3 2 4 4 4 2 5 3 5 3 3 4 5 4 5 4 5 5 5 6 9 14 15 15 15 13 12 12 10 11 9 8
25 4 4 3 3 11 7 5 3 3 2 1 1 2 3 3 3 4 3 3 1 3 3 3 5 4 3 4 5 8 10 8 7 12 9 10 10 10 10 11 8 8 7 6
5 4 3 4 13 3 2 2 2 1 3 2 3 1 2 3 2 2 1 2 1 3 5 5 3 3 2 5 8 13 14 15 14 15 11 10 9 8 8 8 8 7 6 5
4 5 5 4 3 3 2 3 4 4 1 5 2 4 2 4 2 3 3 1 2 1 1 5 3 2 3 9 10 12 13 14 14 13 13 11 11 8 7 5 5 5 5 5
2 2 3 2 3 5 0 1 1 3 3 3 3 4 2 5 4 1 2 3 3 1 5 2 2 3 5 7 11 12 12 15 14 12 12 11 10 8 6 5 5 6 6 5
2 2 6 2 1 2 2 3 2 2 1 4 3 3 1 2 2 2 1 3 3 3 2 2 2 4 6 8 10 14 12 13 12 10 9 9 7 6 6 5 6 5 5 5
3 0 3 2 2 2 2 2 2 2 0 2 4 3 1 3 2 1 2 0 3 1 2 3 1 4 10 10 11 13 11 9 8 7 7 7 7 5 5 5 5 6 5 4
3 3 3 3 1 1 2 3 4 2 1 2 1 2 1 2 1 2 3 3 1 2 3 3 6 8 10 9 11 11 10 10 8 7 7 7 7 5 4 5 5 5 4 3
4 4 4 4 3 4 3 3 2 3 2 1 1 1 1 2 3 2 2 1 1 4 5 4 6 10 9 8 11 11 11 10 9 9 8 7 6 5 5 6 4 3 4 4
Wind_Direction
343 340 340 337 338 343 352 337 330 322 3 29 195 277 271 295 291 277 235 260 202 208 213 276 268 212 234 180 202 199 173 96 298 195 192 200 176 176 140 126 215 116 138 273
343 341 342 340 340 349 316 326 277 303 73 354 331 293 294 289 299 298 235 227 180 163 193 217 226 194 236 188 184 183 161 302 357 73 56 2 149 158 152 116 106 191 130 272
343 343 345 346 343 340 11 336 332 328 353 305 326 317 328 331 312 315 317 62 153 117 228 210 278 174 217 236 187 147 125 165 154 172 179 167 127 163 151 140 126 160 168 126
343 345 347 350 347 340 60 21 323 359 309 330 334 330 278 325 349 327 354 35 15 351 212 44 129 9 353 287 142 93 111 120 80 53 23 81 29 169 167 146 145 133 177 148
342 344 349 351 356 340 39 1 334 302 289 299 332 347 332 326 324 272 5 18 10 9 53 2 46 29 340 77 0 95 24 85 58 27 359 55 68 28 56 86 101 65 122 121
342 342 348 351 358 2 359 309 265 266 298 324 345 338 340 320 350 326 2 343 327 336 326 295 269 202 262 284 354 98 80 98 62 16 333 6 35 350 325 83 142 139 145 146
342 341 345 349 353 7 324 271 278 304 298 345 333 336 349 347 333 303 309 331 346 330 321 215 151 205 263 52 36 110 107 88 68 86 2 60 250 314 252 101 117 132 132 156
342 342 344 346 346 349 338 266 298 326 302 323 327 342 347 343 355 354 325 356 48 335 360 39 56 13 35 29 35 27 27 100 85 79 43 219 352 279 282 119 14 51 129 139
342 344 343 343 344 346 340 280 244 303 300 270 336 319 338 329 337 339 320 347 267 3 32 61 98 111 96 61 31 8 63 80 91 48 62 109 277 158 140 55 28 17 123 130
340 343 344 340 343 343 343 270 40 296 288 271 346 335 326 310 327 308 295 342 1 6 11 48 46 77 94 94 121 143 32 47 123 122 135 104 272 279 91 69 213 29 136 135
335 338 339 337 339 341 349 275 267 325 290 278 253 308 299 327 353 349 309 327 12 21 37 63 56 41 69 98 81 108 114 100 121 117 113 195 331 40 116 193 46 105 101 117
331 333 336 335 336 339 351 310 297 220 214 255 265 275 250 263 276 279 301 253 300 37 31 355 27 39 81 200 93 121 128 190 136 138 100 272 57 107 71 87 87 33 85 76
328 330 330 331 330 333 341 287 281 344 316 307 0 300 299 343 336 230 360 306 315 47 196 76 5 74 34 51 7 40 39 89 106 94 61 77 74 63 71 72 78 79 81 92
324 327 325 325 324 323 328 263 284 174 285 301 287 332 333 304 337 330 220 263 353 50 72 38 28 70 10 45 86 67 311 84 95 105 103 74 56 74 87 80 79 80 77 86
320 323 321 320 322 317 311 211 262 198 124 277 287 310 282 332 348 339 343 9 14 31 52 65 17 39 70 9 49 35 13 53 102 94 85 107 102 91 91 85 83 86 90 79
318 319 316 316 316 321 356 12 282 45 57 301 317 286 335 340 348 353 355 360 15 37 77 6 29 331 87 58 59 352 41 49 65 97 100 95 92 75 85 89 80 78 82 80
314 313 309 306 304 282 132 194 244 340 67 69 314 333 308 324 351 339 358 359 9 71 33 35 56 29 57 52 60 31 76 68 73 79 87 57 54 91 69 78 87 78 72 69
314 312 309 305 297 213 319 251 252 150 82 77 353 291 352 357 334 347 7 3 6 12 48 9 33 22 65 73 48 54 54 68 66 79 81 90 73 63 65 81 89 80 75 77
314 314 312 5 30 20 249 227 244 150 124 339 353 10 300 348 337 326 342 54 34 307 44 15 62 356 50 113 83 79 76 89 80 68 79 75 74 70 63 67 66 84 80 77
310 346 33 326 256 301 327 9 39 20 314 44 208 299 304 27 4 321 11 7 42 43 278 78 65 27 35 54 58 70 66 76 95 86 70 73 73 73 71 71 76 82 87 89
10 1 305 277 298 27 9 330 58 313 20 346 263 197 259 315 47 279 141 207 326 71 277 94 79 343 69 94 77 79 86 83 81 91 87 74 80 82 77 66 73 83 86 93
275 287 281 297 335 15 36 348 338 45 330 328 5 288 257 292 82 62 314 53 41 166 190 76 101 262 147 98 94 100 99 97 91 87 88 78 70 70 70 69 69 69 73 69
257 231 255 62 284 29 275 15 11 345 333 328 322 329 291 340 32 333 34 45 246 57 53 88 158 207 132 123 104 102 98 96 93 87 89 87 82 65 59 59 64 75 67 55
270 262 317 192 217 74 181 200 259 268 60 329 324 291 261 281 351 204 52 251 72 56 83 119 237 157 131 108 107 115 102 97 97 95 95 96 92 81 69 58 72 92 85 60
269 79 249 244 188 124 183 219 309 276 199 330 334 324 121 298 338 308 34 137 67 70 169 150 131 122 106 104 104 111 107 103 94 96 102 99 86 76 73 63 67 83 82 81
243 248 309 281 70 96 198 233 250 223 211 287 246 278 15 328 46 2 0 81 144 251 108 109 119 105 106 107 106 114 112 106 101 90 84 79 84 80 70 68 57 62 67 56
237 251 230 231 235 226 247 176 202 147 100 306 302 16 87 5 53 68 9 143 202 118 99 117 137 122 121 114 114 119 117 113 111 104 95 96 95 87 77 82 81 70 54 67